Powrót do katalogu

FENGYUN 1C DEB

AktywnyPO
NORAD 30826·DEBRIS·🇨🇳 China

Wystrzelony May 10, 1999 z Taiyuan Satellite Launch Center

Loading…

Następne Przeloty (najbliższe 24 godziny)

TLE

ŚwieżeSource: Space-Track

Epoka: Sep 14, 2026, 10:25 UTC

1 30826U 99025AVL 26257.43447032  .00002453  00000-0  25165-3 0  9999
2 30826  98.8385 127.5302 0138640 199.5673 288.3691 14.84704608 43741

Śledź FENGYUN 1C DEB w czasie rzeczywistym z AllMySat

Download on the App Store